TCA7378 SVCS-SVBC

Flight info

Callsign TCA7378
Flight time 0h 30m
Altitude 23000
Route GUTUX1 USOTI W14 GEMAP
Aircraft C25B/M-SDE2E3FGHRWXY/LB1

Departure

Time 2026-04-13 21:30
Airport Caracas Óscar Machado Zuloaga International Airport (SVCS)

Arrival

Time 2026-04-13 22:00
Airport General José Antonio Anzoategui International Airport (SVBC)
Time Latitude Longitude Altitude Speed Heading
2026-04-13 21:21 10.28803 -66.82071 2166 ft 0 kts 185°
2026-04-13 21:28 10.28797 -66.82071 2166 ft 4 kts 185°
2026-04-13 21:28 10.28778 -66.82115 2162 ft 12 kts 274°
2026-04-13 21:28 10.28784 -66.82208 2167 ft 14 kts 275°
2026-04-13 21:28 10.28791 -66.82315 2163 ft 16 kts 273°
2026-04-13 21:29 10.28799 -66.82429 2164 ft 16 kts 274°
2026-04-13 21:29 10.28789 -66.82513 2165 ft 10 kts 195°
2026-04-13 21:29 10.28750 -66.82498 2169 ft 4 kts 95°
2026-04-13 21:29 10.28738 -66.82326 2164 ft 71 kts 94°
2026-04-13 21:30 10.28677 -66.81479 2310 ft 156 kts 94°
2026-04-13 21:30 10.28595 -66.80256 3130 ft 189 kts 92°
2026-04-13 21:30 10.28509 -66.78816 4134 ft 219 kts 91°
2026-04-13 21:30 10.28418 -66.77207 4909 ft 238 kts 92°
2026-04-13 21:31 10.28320 -66.75525 5995 ft 239 kts 93°
2026-04-13 21:31 10.28214 -66.73818 7015 ft 245 kts 95°
2026-04-13 21:31 10.27721 -66.72158 7938 ft 250 kts 118°
2026-04-13 21:31 10.26843 -66.70630 8916 ft 253 kts 120°
2026-04-13 21:32 10.25983 -66.69093 9857 ft 255 kts 120°
2026-04-13 21:32 10.25107 -66.67495 10699 ft 262 kts 119°
2026-04-13 21:32 10.24224 -66.65860 11547 ft 267 kts 119°
2026-04-13 21:32 10.23324 -66.64196 12419 ft 271 kts 120°
2026-04-13 21:33 10.22395 -66.62509 13274 ft 276 kts 120°
2026-04-13 21:33 10.21461 -66.60786 14056 ft 283 kts 120°
2026-04-13 21:33 10.20492 -66.59021 14841 ft 288 kts 120°
2026-04-13 21:34 10.18527 -66.55414 16393 ft 299 kts 121°
2026-04-13 21:34 10.17511 -66.53551 17133 ft 304 kts 121°
2026-04-13 21:34 10.16475 -66.51659 17884 ft 309 kts 121°
2026-04-13 21:34 10.15426 -66.49738 18572 ft 313 kts 122°
2026-04-13 21:35 10.14364 -66.47789 19259 ft 319 kts 121°
2026-04-13 21:35 10.13286 -66.45803 19929 ft 323 kts 122°
2026-04-13 21:35 10.11071 -66.41768 21243 ft 332 kts 122°
2026-04-13 21:36 10.09945 -66.39698 21838 ft 337 kts 122°
2026-04-13 21:36 10.08819 -66.37636 22461 ft 340 kts 122°
2026-04-13 21:36 10.07662 -66.35521 22888 ft 350 kts 122°
2026-04-13 21:36 10.06440 -66.33301 22901 ft 371 kts 122°
2026-04-13 21:37 10.05162 -66.30954 22907 ft 389 kts 122°
2026-04-13 21:37 10.03874 -66.28481 22909 ft 404 kts 117°
2026-04-13 21:37 10.03042 -66.25706 22904 ft 419 kts 104°
2026-04-13 21:37 10.02719 -66.22734 22905 ft 431 kts 90°
2026-04-13 21:38 10.02889 -66.19708 22890 ft 425 kts 87°
2026-04-13 21:38 10.03068 -66.16746 22901 ft 419 kts 87°
2026-04-13 21:38 10.03271 -66.13853 22897 ft 415 kts 86°
2026-04-13 21:38 10.03469 -66.10948 22893 ft 411 kts 87°
2026-04-13 21:39 10.03653 -66.08067 22898 ft 408 kts 87°
2026-04-13 21:39 10.03836 -66.05205 22898 ft 405 kts 87°
2026-04-13 21:39 10.04056 -66.02361 22896 ft 403 kts 85°
2026-04-13 21:39 10.04286 -65.99531 22894 ft 402 kts 86°
2026-04-13 21:40 10.04481 -65.96709 22888 ft 401 kts 86°
2026-04-13 21:40 10.04686 -65.93931 22879 ft 399 kts 86°
2026-04-13 21:40 10.04894 -65.91129 22879 ft 398 kts 87°
2026-04-13 21:40 10.05094 -65.88330 22881 ft 398 kts 86°
2026-04-13 21:41 10.05309 -65.85564 22865 ft 386 kts 86°
2026-04-13 21:41 10.05504 -65.82879 22473 ft 379 kts 87°
2026-04-13 21:41 10.05694 -65.80221 21980 ft 376 kts 86°
2026-04-13 21:41 10.05886 -65.77581 21482 ft 374 kts 86°
2026-04-13 21:42 10.06084 -65.74958 20987 ft 372 kts 86°
2026-04-13 21:42 10.06275 -65.72354 20489 ft 369 kts 86°
2026-04-13 21:42 10.06456 -65.69810 20004 ft 364 kts 86°
2026-04-13 21:42 10.06645 -65.67264 19525 ft 359 kts 86°
2026-04-13 21:43 10.06827 -65.64753 19050 ft 355 kts 86°
2026-04-13 21:43 10.07009 -65.62269 18580 ft 351 kts 86°
2026-04-13 21:43 10.07187 -65.59811 18116 ft 348 kts 86°
2026-04-13 21:43 10.07364 -65.57373 17657 ft 345 kts 86°
2026-04-13 21:44 10.07536 -65.54971 17314 ft 338 kts 86°
2026-04-13 21:44 10.07715 -65.52602 16884 ft 335 kts 86°
2026-04-13 21:44 10.07877 -65.50287 16439 ft 329 kts 86°
2026-04-13 21:44 10.08045 -65.48019 16013 ft 317 kts 86°
2026-04-13 21:45 10.08063 -65.45828 15590 ft 305 kts 98°
2026-04-13 21:45 10.07752 -65.43732 15190 ft 296 kts 97°
2026-04-13 21:45 10.07562 -65.41679 14801 ft 288 kts 96°
2026-04-13 21:45 10.07353 -65.39683 14424 ft 281 kts 97°
2026-04-13 21:46 10.07118 -65.37739 14068 ft 274 kts 97°
2026-04-13 21:46 10.06903 -65.35842 13736 ft 267 kts 97°
2026-04-13 21:46 10.06692 -65.33989 13400 ft 261 kts 97°
2026-04-13 21:46 10.06485 -65.32200 13085 ft 256 kts 97°
2026-04-13 21:47 10.06284 -65.30422 12760 ft 252 kts 97°
2026-04-13 21:47 10.06082 -65.28669 12446 ft 249 kts 97°
2026-04-13 21:47 10.05883 -65.26924 12123 ft 249 kts 97°
2026-04-13 21:47 10.05680 -65.25178 11792 ft 249 kts 97°
2026-04-13 21:48 10.05485 -65.23430 11461 ft 249 kts 97°
2026-04-13 21:48 10.05285 -65.21690 11132 ft 249 kts 97°
2026-04-13 21:48 10.05085 -65.19951 10801 ft 248 kts 97°
2026-04-13 21:48 10.04887 -65.18242 10475 ft 247 kts 97°
2026-04-13 21:49 10.04691 -65.16517 10143 ft 246 kts 97°
2026-04-13 21:49 10.04495 -65.14799 9819 ft 244 kts 97°
2026-04-13 21:49 10.04297 -65.13092 9493 ft 243 kts 98°
2026-04-13 21:49 10.04103 -65.11395 9169 ft 241 kts 98°
2026-04-13 21:50 10.03908 -65.09713 8851 ft 239 kts 98°
2026-04-13 21:50 10.03719 -65.08045 8538 ft 237 kts 98°
2026-04-13 21:50 10.03531 -65.06410 8236 ft 235 kts 97°
2026-04-13 21:50 10.03339 -65.04769 7925 ft 234 kts 97°
2026-04-13 21:51 10.03153 -65.03138 7621 ft 233 kts 98°
2026-04-13 21:51 10.02965 -65.01508 7314 ft 231 kts 97°
2026-04-13 21:51 10.02780 -64.99895 7014 ft 230 kts 97°
2026-04-13 21:51 10.02594 -64.98299 6715 ft 227 kts 97°
2026-04-13 21:52 10.02411 -64.96708 6415 ft 226 kts 97°
2026-04-13 21:52 10.02227 -64.95125 6120 ft 226 kts 97°
2026-04-13 21:52 10.02051 -64.93545 5826 ft 225 kts 97°
2026-04-13 21:52 10.01866 -64.91975 5527 ft 225 kts 97°
2026-04-13 21:53 10.01684 -64.90418 5229 ft 224 kts 96°
2026-04-13 21:53 10.01507 -64.88852 4932 ft 223 kts 96°
2026-04-13 21:53 10.01320 -64.87292 4629 ft 221 kts 96°
2026-04-13 21:53 10.01153 -64.85773 4346 ft 208 kts 95°
2026-04-13 21:54 10.00986 -64.84355 4110 ft 198 kts 95°
2026-04-13 21:54 10.00826 -64.82993 3871 ft 191 kts 95°
2026-04-13 21:54 10.00667 -64.81670 3632 ft 187 kts 94°
2026-04-13 21:54 10.00527 -64.80393 3403 ft 183 kts 94°
2026-04-13 21:55 10.00379 -64.79126 3169 ft 179 kts 94°
2026-04-13 21:55 10.00231 -64.77874 3042 ft 176 kts 93°
2026-04-13 21:55 10.00100 -64.76667 3050 ft 166 kts 93°
2026-04-13 21:55 9.99962 -64.75604 3093 ft 135 kts 92°
2026-04-13 21:56 9.99868 -64.74715 3068 ft 122 kts 91°
2026-04-13 21:56 9.99770 -64.73884 2956 ft 116 kts 92°
2026-04-13 21:56 9.99661 -64.73070 2829 ft 116 kts 90°
2026-04-13 21:56 9.99760 -64.72292 2714 ft 110 kts 66°
2026-04-13 21:57 10.00169 -64.71639 2539 ft 113 kts 50°
2026-04-13 21:57 10.00812 -64.71193 2316 ft 116 kts 24°
2026-04-13 21:57 10.01602 -64.70999 1979 ft 113 kts 14°
2026-04-13 21:57 10.02362 -64.70824 1662 ft 116 kts 17°
2026-04-13 21:58 10.03168 -64.70629 1457 ft 120 kts 14°
2026-04-13 21:58 10.03962 -64.70464 1272 ft 113 kts 17°
2026-04-13 21:58 10.04709 -64.70280 1065 ft 109 kts 14°
2026-04-13 21:58 10.05452 -64.70128 850 ft 109 kts 18°
2026-04-13 21:59 10.06178 -64.69945 694 ft 104 kts 13°
2026-04-13 21:59 10.06878 -64.69812 589 ft 105 kts 14°
2026-04-13 21:59 10.07591 -64.69653 488 ft 105 kts 15°
2026-04-13 21:59 10.08307 -64.69464 343 ft 108 kts 17°
2026-04-13 22:00 10.09054 -64.69291 171 ft 111 kts 12°
2026-04-13 22:00 10.09802 -64.69127 41 ft 105 kts 12°
2026-04-13 22:00 10.10379 -64.68997 31 ft 58 kts 12°
2026-04-13 22:00 10.10636 -64.68939 32 ft 23 kts 13°
2026-04-13 22:01 10.10736 -64.68877 31 ft 15 kts 78°
2026-04-13 22:01 10.10751 -64.68803 34 ft 10 kts 78°
2026-04-13 22:01 10.10758 -64.68729 34 ft 11 kts 116°
2026-04-13 22:01 10.10748 -64.68678 34 ft 4 kts 56°
2026-04-13 22:02 10.10757 -64.68675 34 ft 0 kts 355°